Regional Weather Roundup
Issued by NWS

Home | Current Version | Previous Version | Text Only | Print | Product List | Glossary On
Versions: 1 2 3 4 5 6 7 8 9 10 11 12 13 14 15 16 17 18 19 20 21 22 23 24 25 26 27 28 29 30 31 32 33 34 35 36 37 38 39 40 41 42 43 44 45 46 47 48 49 50
000
ASUS44 KFWD 182015
RWRTX
NORTH TEXAS HOURLY WEATHER ROUNDUP
NATIONAL WEATHER SERVICE FORT WORTH TX
200 PM CST SUN FEB 18 2018

NOTE: "FAIR" INDICATES FEW OR NO CLOUDS BELOW 12,000 FEET WITH NO
SIGNIFICANT WEATHER AND/OR OBSTRUCTIONS TO VISIBILITY.

TXZ118-119-182100-
DALLAS/FORT WORTH METROPLEX

CITY           SKY/WX    TMP DP  RH WIND       PRES   REMARKS
DFW AIRPORT    CLOUDY    56  54  93 SE15      29.92F FOG
DALLAS LOVE    LGT RAIN  56  54  93 S16G25    29.96F
FTW MEACHAM    CLOUDY    56  55  97 E5        29.95F
DAL-EXECUTIVE  LGT RAIN  54  53  97 S20G33    29.94F FOG
FTW-ALLIANCE   CLOUDY    55  54  96 S10       29.94F
FTW-NAS-JRB    CLOUDY    57  52  83 SE3       29.96F
FTW-SPINKS     LGT RAIN  55  54  94 SE17G25   29.94F
ARLINGTON      LGT RAIN  53  53 100 SE26G33   29.91F
GRAND PRAIRIE  PTSUNNY   52  52 100 SE12G21   29.97F
ADDISON        CLOUDY    54  50  87 SE14G22   29.97F FOG
MESQUITE       LGT RAIN  54  52  94 SE15      30.01F FOG
LANCASTER      RAIN      53  52  97 S13       30.04F
$$

TXZ091>094-102>105-117-120-121-131>134-182100-
NORTH CENTRAL TEXAS

CITY           SKY/WX    TMP DP  RH WIND       PRES   REMARKS
SHRMAN/DENISON CLOUDY    52  51  95 SE10      29.98F
GAINESVILLE    CLOUDY    51  50  95 S13       29.97F FOG
BOWIE          CLOUDY    53  50  90 SE12G22   29.92F
BRIDGEPORT     CLOUDY    55  52  90 SE6       29.96F
DECATUR        CLOUDY    52  51  95 SE9       29.93F FOG
DENTON         CLOUDY    53  52  96 SE12      29.96F FOG
MCKINNEY       FOG       53  53 100 SE15G22   29.96F VSB 1
BONHAM         CLOUDY    51  49  92 SE13      30.00F
GREENVILLE     LGT RAIN  54  54 100 SE15      29.99F
ROCKWALL       RAIN      53  53 100 SE21G28   29.97F
TERRELL        RAIN      55  53  93 S10       30.04F FOG
WAXAHACHIE     LGT RAIN  53  53 100 SE10G17   30.03F
CLEBURNE       LGT RAIN  54  54 100 SE20G28   29.99F
GRANBURY       DRIZZLE   55  53  93 E12G18    29.91F
$$

TXZ083>090-098>101-113>116-127>130-139>142-154-155-182100-
WESTERN NORTH TEXAS

CITY           SKY/WX    TMP DP  RH WIND       PRES   REMARKS
WICHITA FALLS  CLOUDY    59  47  64 S13       29.89F
WF-KICKAPOO    CLOUDY    58  49  71 S17       29.92F
VERNON         FAIR      69  44  39 S18G26    29.84F
ABILENE        FAIR      66  58  75 S24G35    29.90F
ABILENE-DYESS  FAIR      66  58  75 S23G30    29.89F
GRAHAM           N/A     58  54  84 SE7       29.91F
BRECKENRIDGE   CLOUDY    66  55  68 S16       29.91F
CISCO          CLOUDY    61  55  82 S13G22    29.94F
EASTLAND       CLOUDY    60  56  86 S12       29.92F
RANGER         CLOUDY    57  56  96 S13       29.93F
MINERAL WELLS  CLOUDY    54  52  93 SE7       29.91F FOG
STEPHENVILLE   CLOUDY    55  53  93 S17G24    29.96F
COMANCHE       PTSUNNY   58  58 100 S16       29.92F
COLEMAN        CLOUDY    59  57  92 S14       29.94F
$$

TXZ143>147-156>162-174-175-182100-
CENTRAL TEXAS

CITY           SKY/WX    TMP DP  RH WIND       PRES   REMARKS
WACO           CLOUDY    56  53  90 SE3       30.04F FOG
WACO-TSTC      CLOUDY    57  55  94 CALM      30.05F FOG
WACO-MCGREGOR  CLOUDY    57  54  89 SE3       30.04F
HILLSBORO      LGT RAIN  55  55 100 S3        30.05F
CORSICANA      CLOUDY    57  57 100 S5        30.06F FOG
MEXIA          CLOUDY    58  56  95 S8        30.05F
HEARNE         CLOUDY    63  63 100 SE7       30.05F FOG
CAMERON        CLOUDY    64  61  90 S5        30.03F
TEMPLE         CLOUDY    56  54  93 CALM      30.04F FOG
KILLEEN        CLOUDY    55  54  94 SE3       30.01F
KILLEEN-SKYLRK CLOUDY    56  54  93 SE3       30.03F FOG
FORT HOOD      CLOUDY    54  53  98 SE5       29.99F
GATESVILLE     CLOUDY    59  54  82 CALM      30.03F
HAMILTON       PTSUNNY   57  57 100 S16       30.00F FOG
LAMPASAS       CLOUDY    61  55  79 SE7       30.00F
$$

TXZ095>097-106>112-122>126-135>138-148>153-164>167-182100-
EAST TEXAS

CITY           SKY/WX    TMP DP  RH WIND       PRES   REMARKS
PARIS          LGT RAIN  49  48  97 SE18      30.01F
SULPHUR SPRNGS CLOUDY    55  52  90 SE12      30.05F
MOUNT PLEASANT CLOUDY    52  49  92 SE7       30.09F
GILMER         CLOUDY    52  51  97 S6        30.08F
MINEOLA        CLOUDY    55  52  88 SE7       30.07F FOG
TYLER          FOG       55  54  96 SE6       30.07F VSB 1/2
LONGVIEW       CLOUDY    55  55 100 SE7       30.07F FOG
MARSHALL       CLOUDY    54  51  91 S7        30.11F
ATHENS         CLOUDY    54  54 100 SE3       30.04F FOG
JACKSONVILLE   CLOUDY    60  60 100 S6        30.08F
HENDERSON      CLOUDY    59  57  94 S5        30.08F
CENTER         CLOUDY    59  57  95 SE5       30.10F
NACOGDOCHES    CLOUDY    62  60  93 SE6       30.08F
LUFKIN         CLOUDY    69  64  84 SE7       30.06F
$$

SUPPLEMENTAL OBSERVATIONS (NWS FORT WORTH AREA)

CITY           SKY/WX    TMP DP  RH WIND       PRES   REMARKS
DENISON DAM      N/A     52  50  93 SE8         N/A
CADDO GRASSLND   N/A     52  50  93 S8G16       N/A
PAT MAYSE LAKE   N/A     48  46  93 E10         N/A
GREENVILLE       N/A     52  50  93 SE17G25     N/A
CEDAR HILL       N/A     54  52  94 SE20G29     N/A
LBJ GRASSLAND    N/A     54  50  87 SE9         N/A
POSSUM KINGDOM   N/A     61  54  77 S8          N/A
GRANBURY         N/A     55  54  94 E7G22       N/A
COMANCHE         N/A    N/A N/A N/A S20         N/A
MCGREGOR         N/A     57  52  82 S5          N/A
TEMPLE           N/A     55  54  94 S2          N/A
LAKE LIMESTONE   N/A     64  59  82 S8          N/A
$$

SUPPLEMENTAL OBSERVATIONS (NWS NORMAN AREA)

CITY           SKY/WX    TMP DP  RH WIND       PRES   REMARKS
GOODLETT         N/A     73  49  42 S23G29    29.79F
ODELL            N/A     68  51  53 S16       29.84F
CROWELL          N/A     72  52  48 S23       29.82F
KNOX CITY        N/A     73  52  47 S22       29.84F
SEYMOUR          N/A     69  52  53 S18       29.85F
MILLERS CREEK    N/A     70  55  60 S16G23      N/A
$$

SUPPLEMENTAL OBSERVATIONS (NWS SAN ANGELO AREA)

CITY           SKY/WX    TMP DP  RH WIND       PRES   REMARKS
WEINERT          N/A     72  55  56 S14       29.86F
HASKELL          N/A     70  54  55 S17       29.86F
THROCKMORTON     N/A     66  56  69 SE15      29.89F
STAMFORD         N/A     71  58  64 S14G21    29.89F
CLYDE            N/A     64  57  77 S14       29.92F
HAMBY            N/A     68  55  64 S18         N/A
$$

SUPPLEMENTAL OBSERVATIONS (NWS SHREVEPORT AREA)

CITY           SKY/WX    TMP DP  RH WIND       PRES   REMARKS
CLARKSVILLE      N/A     48  45  87 SE12        N/A
TEXARKANA        N/A     52  48  87 SE5         N/A
LINDEN           N/A     52  48  87 SE3         N/A
CADDO LAKE       N/A     55  50  82 SE3         N/A
GILMER           N/A     54  52  94 S5          N/A
HENDERSON        N/A     61  57  88 S5          N/A
LUFKIN           N/A     68  63  83 MISG        N/A
N SABINE NF      N/A     63  59  88 MISG        N/A
S SABINE NF      N/A     64  59  82 W3          N/A
$$

SUPPLEMENTAL OBSERVATIONS ARE A COLLECTION OF AUTOMATED INSTRUMENTS
THAT ARE MAINTAINED BY A VARIETY OF FEDERAL AND STATE AGENCIES.
CERTAIN ELEMENTS...SUCH AS HUMIDITY VALUES AND SUSTAINED WIND
SPEEDS...MAY BE APPROXIMATED.





USA.gov is the U.S. government's official web portal to all federal, state and local government web resources and services.